Location: Corralito
(10.2667°N, 66.9500°W)
Time: 16:58:43
(UTC+00:00)

Okean 1-7 - Pass Details

Date: 23 March 2023
Orbit: 585 x 612 km, 82.5° (Epoch: 09 June)

Event Time Altitude Azimuth Distance (km) Brightness Sun altitude
Rises 23:53:11 0° 358° (N) 2,855 6.6 -19.1°
Reaches altitude 10° 23:55:24 10° 359° (N) 1,949 5.7 -19.7°
Maximum altitude 23:59:42 79° 86° (E) 616 2.8 -20.7°
Enters shadow 00:03:05 16° 172° (S) 1,578 5.0 -21.6°
